Location: Buena Vista
(37.7110°N, 119.7938°W)
Time: 14:49:45
(UTC+00:00)

STRAND 1 - Visible Passes

Search period start: 03 October 2024 00:00
Search period end: 13 October 2024 00:00
Orbit: 765 x 776 km, 98.4° (Epoch: 02 October)

Date Brightness Start Highest point End Pass type
(mag) Time Alt. Az. Time Alt. Az. Time Alt. Az.
03 Oct ? 03:34:30 10° NNW 03:38:00 19° WNW 03:41:30 10° WSW visible
03 Oct ? 13:07:36 10° SSE 13:12:35 56° ENE 13:17:35 10° N visible
04 Oct ? 02:58:23 10° N 03:03:09 39° WNW 03:07:52 10° SW visible
04 Oct ? 12:33:27 10° ESE 12:37:38 26° ENE 12:41:50 10° NNE visible
05 Oct ? 02:22:56 10° NNE 02:28:06 86° WNW 02:33:12 10° SSW visible
05 Oct ? 12:00:48 10° E 12:02:51 12° ENE 12:04:56 10° NE visible
06 Oct ? 03:27:50 10° NNW 03:31:39 21° WNW 03:35:26 10° WSW visible
06 Oct ? 13:01:17 10° SE 13:06:10 49° ENE 13:11:06 10° N visible
07 Oct ? 02:51:51 10° N 02:56:44 45° WNW 03:01:34 10° SW visible
07 Oct ? 12:27:18 10° ESE 12:31:14 23° ENE 12:35:12 10° NNE visible
08 Oct ? 02:16:28 10° NNE 02:21:39 83° ESE 02:26:45 10° SSW visible
08 Oct ? 03:58:22 10° NW 03:59:59 11° WNW 04:01:36 10° W visible
08 Oct ? 11:55:20 10° ENE 11:56:30 11° ENE 11:57:39 10° NE visible
08 Oct ? 13:29:42 10° SSE 13:34:48 88° WSW 13:39:58 10° NNW visible
09 Oct ? 03:21:10 10° NNW 03:25:14 24° WNW 03:29:18 10° WSW visible
09 Oct ? 12:54:56 10° SE 12:59:43 42° ENE 13:04:33 10° N visible
10 Oct ? 02:45:18 10° N 02:50:17 52° WNW 02:55:13 10° SSW visible
10 Oct ? 12:21:09 10° ESE 12:24:49 20° ENE 12:28:30 10° NNE visible
11 Oct ? 02:10:01 10° NNE 02:15:08 72° ESE 02:20:14 10° S visible
11 Oct ? 03:51:14 10° NW 03:53:35 13° WNW 03:55:56 10° W visible
11 Oct ? 13:23:12 10° SSE 13:28:18 81° ENE 13:33:28 10° N visible
12 Oct ? 03:14:29 10° N 03:18:46 28° WNW 03:23:04 10° SW visible
12 Oct ? 12:48:35 10° SE 12:53:15 37° ENE 12:57:56 10° N visible
